WetterOnline ( https://www.wetteronline.ch )

Wetter aktuell Traunstein

Aktuelles Wetter: Chieming (553m)

6-stündlich | Neueste Meldungen
Ortszeit Temperatur Wetter
Di, 12.11. 1:00 4.2° C bedeckt
Mo, 11.11. 19:00 2.1° C bewölkt
Mo, 11.11. 13:00 1.7° C bedeckt
Mo, 11.11. 7:00 -0.6° C bedeckt
Mo, 11.11. 1:00 0.3° C bedeckt
So, 10.11. 19:00 1.3° C bewölkt
So, 10.11. 13:00 1.2° C bedeckt
So, 10.11. 7:00 -2.2° C Nebel
Ortszeit Temperatur Wetter
Di, 12.11. 4:30 4.1° C leichter Regen
Di, 12.11. 4:20 4.1° C leichter Regen
Di, 12.11. 4:10 3.6° C Sprühregen
Di, 12.11. 4:00 3.3° C Sprühregen
Di, 12.11. 3:50 3.3° C Sprühregen
Di, 12.11. 3:40 3.2° C Sprühregen
Di, 12.11. 3:30 3.4° C Sprühregen
Di, 12.11. 3:00 3.2° C Sprühregen
Ortszeit Relative Feuchte Sichtweite
Di, 12.11. 1:00 82% 23 km
Mo, 11.11. 19:00 94% 8 km
Mo, 11.11. 13:00 92% 15 km
Mo, 11.11. 7:00 99% 8 km
Mo, 11.11. 1:00 100% 1.0 km
So, 10.11. 19:00 96% 11 km
So, 10.11. 13:00 93% 16 km
So, 10.11. 7:00 100% 0.3 km
Ortszeit Relative Feuchte Sichtweite
Di, 12.11. 4:30 88% 8 km
Di, 12.11. 4:20 88% -
Di, 12.11. 4:10 93% -
Di, 12.11. 4:00 93% 9 km
Di, 12.11. 3:50 93% -
Di, 12.11. 3:40 92% -
Di, 12.11. 3:30 92% 23 km
Di, 12.11. 3:00 92% 13 km
Ortszeit Niederschlagsmenge Niederschlagsart
Di, 12.11. 1:00 0.0 l/m2 in 6 Std. -
Mo, 11.11. 19:00 0.0 l/m2 in 12 Std. -
Mo, 11.11. 13:00 0.0 l/m2 in 6 Std. -
Mo, 11.11. 7:00 0.0 l/m2 in 12 Std. -
Mo, 11.11. 1:00 0.0 l/m2 in 6 Std. -
So, 10.11. 19:00 0.0 l/m2 in 12 Std. -
So, 10.11. 13:00 0.0 l/m2 in 6 Std. -
So, 10.11. 7:00 0.0 l/m2 in 12 Std. -
Ortszeit Niederschlagsmenge Niederschlagsart
Di, 12.11. 4:30 0.2 l/m2 in 1 Std. -
Di, 12.11. 4:20 keine Meldung -
Di, 12.11. 4:10 keine Meldung -
Di, 12.11. 4:00 0.1 l/m2 in 1 Std. Regen
Di, 12.11. 3:50 keine Meldung -
Di, 12.11. 3:40 keine Meldung -
Di, 12.11. 3:30 0.1 l/m2 in 1 Std. -
Di, 12.11. 3:00 0.1 l/m2 in 1 Std. Regen
Ortszeit Stärke Spitze Richtung
km/h Bft. km/h Grad Sektor
Di, 12.11. 1:00 13 3 26 260° W
Mo, 11.11. 19:00 4 1 22 20° N
Mo, 11.11. 13:00 9 2 19 70° O
Mo, 11.11. 7:00 4 1 14 90° O
Mo, 11.11. 1:00 13 3 15 90° O
So, 10.11. 19:00 4 1 14 50° NO
So, 10.11. 13:00 9 2 19 40° NO
So, 10.11. 7:00 13 3 17 60° NO
Ortszeit Stärke Spitze Richtung
km/h Bft. km/h Grad Sektor
Di, 12.11. 4:30 19 3 31 230° SW
Di, 12.11. 4:20 19 3 - 230° SW
Di, 12.11. 4:10 11 2 - 200° S
Di, 12.11. 4:00 6 1 13 130° SO
Di, 12.11. 3:50 6 1 - 130° SO
Di, 12.11. 3:40 4 1 - 130° SO
Di, 12.11. 3:30 7 2 13 150° SO
Di, 12.11. 3:00 9 2 15 170° S
Ortszeit Untergrenze Bedeckung Gattung
total tief tief mittel hoch
Di, 12.11. 1:00 480 m 8/8 8/8 - - -
Mo, 11.11. 19:00 210 m 7/8 7/8 - - -
Mo, 11.11. 13:00 150 m 8/8 8/8 - - -
Mo, 11.11. 7:00 60 m 8/8 8/8 - - -
Mo, 11.11. 1:00 30 m 8/8 8/8 - - -
So, 10.11. 19:00 210 m 7/8 7/8 - - -
So, 10.11. 13:00 120 m 8/8 8/8 - - -
So, 10.11. 7:00 <30 m 4/8 0/8 - - -
Ortszeit Bedeckungsgrad in Achtel und Wolkenuntergrenze
Di, 12.11. 4:30 2(360m) 7(690m) 7(870m)
Di, 12.11. 4:20 2(360m) 7(690m) 7(870m)
Di, 12.11. 4:10 2(540m) 7(840m) 8(1290m)
Di, 12.11. 4:00 4(690m) 7(1320m) 8(1500m)
Di, 12.11. 3:50 4(690m) 7(1320m) 8(1500m)
Di, 12.11. 3:40 3(720m) 5(1110m) 8(1500m)
Di, 12.11. 3:30 1(720m) 3(1230m) 8(1500m)
Di, 12.11. 3:00 2(1050m) 4(1320m) 7(1500m)
Ortszeit Luftdruck NN (hPa) Tendenz (hPa in 3 Std.)
Di, 12.11. 1:00 1012 + 1,2
Mo, 11.11. 19:00 1010 + 0,5
Mo, 11.11. 13:00 1012 - 3,0
Mo, 11.11. 7:00 1017 - 1,1
Mo, 11.11. 1:00 1018 - 0,2
So, 10.11. 19:00 1018 + 1,9
So, 10.11. 13:00 1014 + 1,0
So, 10.11. 7:00 1012 - 0,1
Ortszeit Luftdruck NN (hPa) Tendenz (hPa in 3 Std.)
Di, 12.11. 4:30 1011 - 0,1
Di, 12.11. 4:20 1011 keine Meldung
Di, 12.11. 4:10 1011 keine Meldung
Di, 12.11. 4:00 1011 - 0,4
Di, 12.11. 3:50 1011 keine Meldung
Di, 12.11. 3:40 1011 keine Meldung
Di, 12.11. 3:30 1011 0,0
Di, 12.11. 3:00 1011 + 0,2
Ortszeit Schneehöhe (cm)
Di, 12.11. 1:00 0
Mo, 11.11. 19:00 0
Mo, 11.11. 13:00 0
Mo, 11.11. 7:00 0
Mo, 11.11. 1:00 0
So, 10.11. 19:00 0
So, 10.11. 13:00 0
So, 10.11. 7:00 0
Ortszeit Schneehöhe (cm)
Di, 12.11. 4:30 0
Di, 12.11. 4:20 0
Di, 12.11. 4:10 0
Di, 12.11. 4:00 0
Di, 12.11. 3:50 0
Di, 12.11. 3:40 0
Di, 12.11. 3:30 0
Di, 12.11. 3:00 0
Link zu dieser Seite / Seite empfehlen

Das Wetter in ...